Aérodrome :
LOGIN :

S'inscrire | Disclaimer

   EN    FR    IT 

 










Légende :    VFR   VFR Marginal   IFR   IFR Intensif   IFR Très Intensif
Visi : 
Plafond : 
>= 8 km
>= 3000ft
5 à 8 km
1000 à 3000 ft
1500m à 5 km
500 à 1000 ft
800 à 1500m
200 à 500 ft
< 800m
< 200 ft
Symboles :   Orages  Brouillard  Fortes neiges  Fortes précipitations  Vent > 20 kt
SIGMETs :   Divers  Orages  Givrage  Turbulence  Onde Orograph.  Cendres Volcan.






- Altitude de l'aérodrome : 1411 ft
- Code IATA : GVA


LSGG - Genève Cointrin

DERNIER METAR :
  • 160920Z VRB01KT CAVOK 06/05 Q1011 NOSIG

METARs EXPIRÉS :
  • 160850Z VRB02KT CAVOK 05/05 Q1011 NOSIG
  • 160820Z VRB01KT CAVOK 05/04 Q1011 NOSIG
  • 160750Z VRB01KT CAVOK 05/04 Q1011 NOSIG
  • 160720Z VRB02KT CAVOK 05/04 Q1011 NOSIG
  • 160650Z 01004KT CAVOK 04/04 Q1011 NOSIG

TAF TAF LSGG
Valide du 16 à 09h jusqu'au 17 à 15h UTC


160825Z 1609/1715 VRB03KT CAVOK TX10/1614Z TN05/1706Z TX09/1715Z
PROB30
TEMPO 1703/1706 0700 FG VV003
ATIS : +41 22 417 40 81



MET'MAP, la Météo Aéronautique d'un coup d'oeil ! - Copyright ORBIFLY Décembre 2007 - Disclaimer

ORBIFLY MET'MAP TEAM :

Programmation & Développement : Alexandra Zaïnal
Sur une idée originale de : Baudouin d'Aumeries
Assistance à la programmation : Marc-Olivier Méhu
Soutien technique & logistique : Manuel Goepfert

Contact : metmap@orbifly.com




SOURCES & CREDITS :

   NOAA